DELGD EDLP-EDDV

Flight info

Callsign DELGD
Flight time 0h 33m
Altitude 7000
Route WRB1X/06 WRB WRB1Z
Aircraft DA40/L-SBDGRY/S

Departure

Time 2026-05-06 12:57
Airport Paderborn Lippstadt Airport (EDLP)

Arrival

Time 2026-05-06 13:31
Airport Hannover Airport (EDDV)
Time Latitude Longitude Altitude Speed Heading
2026-05-06 12:45 51.60984 8.61614 697 ft 0 kts 139°
2026-05-06 12:54 51.60981 8.61614 698 ft 0 kts 231°
2026-05-06 12:54 51.60974 8.61574 700 ft 7 kts 262°
2026-05-06 12:55 51.60984 8.61506 703 ft 5 kts 306°
2026-05-06 12:55 51.60988 8.61448 703 ft 6 kts 243°
2026-05-06 12:55 51.60957 8.61362 699 ft 8 kts 264°
2026-05-06 12:55 51.60967 8.61265 704 ft 14 kts 282°
2026-05-06 12:56 51.60986 8.61116 701 ft 11 kts 281°
2026-05-06 12:56 51.61015 8.61035 705 ft 9 kts 321°
2026-05-06 12:56 51.61101 8.61047 705 ft 21 kts 25°
2026-05-06 12:56 51.61256 8.61263 704 ft 43 kts 52°
2026-05-06 12:57 51.61493 8.61840 712 ft 79 kts 51°
2026-05-06 12:57 51.61808 8.62592 917 ft 80 kts 50°
2026-05-06 12:57 51.62088 8.63367 1174 ft 74 kts 54°
2026-05-06 12:57 51.62338 8.64052 1452 ft 70 kts 47°
2026-05-06 12:58 51.62613 8.64698 1704 ft 74 kts 45°
2026-05-06 12:58 51.62902 8.65386 2007 ft 74 kts 49°
2026-05-06 12:58 51.63192 8.66071 2325 ft 73 kts 45°
2026-05-06 12:58 51.63451 8.66815 2604 ft 76 kts 49°
2026-05-06 12:59 51.63765 8.67500 2875 ft 78 kts 46°
2026-05-06 12:59 51.64070 8.68244 3102 ft 83 kts 65°
2026-05-06 12:59 51.64196 8.69129 3322 ft 81 kts 73°
2026-05-06 12:59 51.64313 8.70028 3508 ft 83 kts 74°
2026-05-06 13:00 51.64427 8.70938 3710 ft 83 kts 75°
2026-05-06 13:00 51.64543 8.71853 3902 ft 85 kts 76°
2026-05-06 13:00 51.64659 8.72790 4082 ft 85 kts 79°
2026-05-06 13:01 51.64996 8.75487 4697 ft 85 kts 81°
2026-05-06 13:01 51.65111 8.76412 4882 ft 86 kts 82°
2026-05-06 13:01 51.65188 8.77398 4999 ft 95 kts 103°
2026-05-06 13:02 51.64889 8.78406 5015 ft 110 kts 132°
2026-05-06 13:02 51.64445 8.79386 5237 ft 107 kts 133°
2026-05-06 13:02 51.64160 8.80516 5430 ft 116 kts 98°
2026-05-06 13:02 51.64416 8.81755 5622 ft 122 kts 52°
2026-05-06 13:03 51.65117 8.82530 5803 ft 123 kts 21°
2026-05-06 13:03 51.65906 8.83087 5986 ft 125 kts 20°
2026-05-06 13:03 51.66691 8.83709 6203 ft 123 kts 24°
2026-05-06 13:03 51.67401 8.84269 6573 ft 106 kts 21°
2026-05-06 13:04 51.68059 8.84769 6786 ft 107 kts 20°
2026-05-06 13:04 51.68736 8.85282 6988 ft 109 kts 20°
2026-05-06 13:04 51.69495 8.85850 7008 ft 131 kts 21°
2026-05-06 13:04 51.70373 8.86520 7000 ft 147 kts 23°
2026-05-06 13:05 51.71321 8.87247 7009 ft 154 kts 22°
2026-05-06 13:05 51.72289 8.87986 6994 ft 152 kts 22°
2026-05-06 13:05 51.73248 8.88710 6993 ft 153 kts 22°
2026-05-06 13:05 51.74209 8.89433 6992 ft 152 kts 22°
2026-05-06 13:06 51.75168 8.90156 6992 ft 152 kts 22°
2026-05-06 13:06 51.76117 8.90872 6994 ft 152 kts 22°
2026-05-06 13:06 51.77074 8.91594 6994 ft 153 kts 22°
2026-05-06 13:06 51.78034 8.92320 6988 ft 151 kts 21°
2026-05-06 13:07 51.78985 8.93039 6996 ft 151 kts 22°
2026-05-06 13:07 51.79943 8.93763 6998 ft 154 kts 22°
2026-05-06 13:07 51.80919 8.94502 6999 ft 155 kts 22°
2026-05-06 13:07 51.81907 8.95248 6991 ft 158 kts 22°
2026-05-06 13:08 51.82888 8.96015 7075 ft 153 kts 25°
2026-05-06 13:08 51.83877 8.96805 6979 ft 160 kts 24°
2026-05-06 13:08 51.84901 8.97548 6977 ft 163 kts 17°
2026-05-06 13:08 51.85918 8.98308 6954 ft 167 kts 24°
2026-05-06 13:09 51.86937 8.99107 6987 ft 160 kts 21°
2026-05-06 13:09 51.87946 8.99833 6976 ft 157 kts 21°
2026-05-06 13:09 51.88941 9.00571 6911 ft 160 kts 22°
2026-05-06 13:09 51.89967 9.01352 6799 ft 163 kts 22°
2026-05-06 13:10 51.90977 9.02127 6793 ft 159 kts 22°
2026-05-06 13:10 51.91965 9.02882 6795 ft 155 kts 22°
2026-05-06 13:10 51.92936 9.03623 6796 ft 154 kts 22°
2026-05-06 13:10 51.93893 9.04351 6807 ft 154 kts 23°
2026-05-06 13:11 51.94855 9.05084 6800 ft 153 kts 23°
2026-05-06 13:11 51.95817 9.05818 6802 ft 153 kts 23°
2026-05-06 13:11 51.96778 9.06550 6802 ft 153 kts 23°
2026-05-06 13:11 51.97736 9.07281 6802 ft 152 kts 23°
2026-05-06 13:12 51.98692 9.08010 6803 ft 152 kts 23°
2026-05-06 13:12 51.99649 9.08741 6804 ft 152 kts 23°
2026-05-06 13:12 52.00607 9.09473 6806 ft 153 kts 23°
2026-05-06 13:12 52.01572 9.10210 6807 ft 155 kts 23°
2026-05-06 13:13 52.02550 9.10959 6800 ft 155 kts 23°
2026-05-06 13:13 52.03522 9.11703 6806 ft 153 kts 23°
2026-05-06 13:13 52.04475 9.12432 6807 ft 153 kts 23°
2026-05-06 13:13 52.05437 9.13168 6807 ft 153 kts 23°
2026-05-06 13:14 52.06392 9.13900 6798 ft 152 kts 23°
2026-05-06 13:14 52.07400 9.14671 6550 ft 166 kts 24°
2026-05-06 13:14 52.08463 9.15487 6303 ft 172 kts 24°
2026-05-06 13:14 52.09546 9.16320 6126 ft 170 kts 24°
2026-05-06 13:15 52.10605 9.17133 5973 ft 167 kts 24°
2026-05-06 13:15 52.11653 9.17939 5811 ft 166 kts 24°
2026-05-06 13:15 52.12692 9.18737 5657 ft 164 kts 24°
2026-05-06 13:15 52.13702 9.19514 5509 ft 162 kts 24°
2026-05-06 13:16 52.14724 9.20298 5358 ft 163 kts 24°
2026-05-06 13:16 52.15745 9.21086 5204 ft 162 kts 24°
2026-05-06 13:16 52.16768 9.21866 5050 ft 161 kts 26°
2026-05-06 13:16 52.17776 9.22641 4904 ft 159 kts 27°
2026-05-06 13:17 52.18780 9.23412 4751 ft 160 kts 27°
2026-05-06 13:17 52.19771 9.24229 4615 ft 160 kts 27°
2026-05-06 13:17 52.20782 9.24989 4446 ft 160 kts 27°
2026-05-06 13:17 52.21782 9.25749 4290 ft 158 kts 27°
2026-05-06 13:18 52.22754 9.26494 4134 ft 155 kts 27°
2026-05-06 13:18 52.23747 9.27158 3979 ft 154 kts 20°
2026-05-06 13:18 52.24734 9.27660 3973 ft 144 kts 20°
2026-05-06 13:18 52.25675 9.28136 3976 ft 139 kts 19°
2026-05-06 13:19 52.26587 9.28602 3975 ft 137 kts 20°
2026-05-06 13:19 52.27488 9.29060 3975 ft 135 kts 19°
2026-05-06 13:19 52.28383 9.29516 3977 ft 134 kts 20°
2026-05-06 13:19 52.29278 9.29972 3977 ft 136 kts 21°
2026-05-06 13:20 52.30185 9.30436 3977 ft 137 kts 20°
2026-05-06 13:20 52.31080 9.30892 3982 ft 136 kts 20°
2026-05-06 13:20 52.31982 9.31355 3974 ft 136 kts 20°
2026-05-06 13:20 52.32907 9.31827 3839 ft 143 kts 21°
2026-05-06 13:21 52.33900 9.32184 3685 ft 150 kts
2026-05-06 13:21 52.34964 9.32258 3507 ft 156 kts
2026-05-06 13:21 52.36058 9.32332 3294 ft 157 kts
2026-05-06 13:21 52.37145 9.32405 3088 ft 155 kts
2026-05-06 13:22 52.38202 9.32471 2978 ft 146 kts
2026-05-06 13:22 52.39181 9.32530 2981 ft 138 kts
2026-05-06 13:22 52.40120 9.32589 2978 ft 132 kts
2026-05-06 13:22 52.41015 9.32646 2984 ft 130 kts
2026-05-06 13:23 52.41913 9.32708 2982 ft 128 kts
2026-05-06 13:23 52.42802 9.32768 2981 ft 128 kts
2026-05-06 13:23 52.43686 9.32823 2982 ft 126 kts
2026-05-06 13:23 52.44560 9.32884 2981 ft 126 kts
2026-05-06 13:24 52.45384 9.33216 2982 ft 120 kts 32°
2026-05-06 13:24 52.46002 9.34085 2984 ft 117 kts 57°
2026-05-06 13:24 52.46308 9.35291 2981 ft 115 kts 84°
2026-05-06 13:24 52.46320 9.36595 2983 ft 115 kts 92°
2026-05-06 13:25 52.46305 9.37908 3001 ft 116 kts 91°
2026-05-06 13:25 52.46289 9.39229 2995 ft 116 kts 92°
2026-05-06 13:25 52.46247 9.40517 3003 ft 114 kts 92°
2026-05-06 13:25 52.46211 9.41826 3001 ft 116 kts 92°
2026-05-06 13:26 52.46175 9.43146 3000 ft 115 kts 92°
2026-05-06 13:26 52.46136 9.44462 2992 ft 115 kts 92°
2026-05-06 13:26 52.46106 9.45795 2886 ft 120 kts 92°
2026-05-06 13:26 52.46064 9.47200 2715 ft 126 kts 92°
2026-05-06 13:27 52.46024 9.48643 2543 ft 128 kts 91°
2026-05-06 13:27 52.45985 9.50116 2368 ft 129 kts 91°
2026-05-06 13:27 52.45944 9.51569 2192 ft 127 kts 90°
2026-05-06 13:27 52.45902 9.53020 2015 ft 128 kts 89°
2026-05-06 13:28 52.45861 9.54475 1840 ft 128 kts 89°
2026-05-06 13:28 52.45821 9.55935 1665 ft 128 kts 89°
2026-05-06 13:28 52.45780 9.57379 1490 ft 126 kts 89°
2026-05-06 13:28 52.45743 9.58792 1314 ft 126 kts 89°
2026-05-06 13:29 52.45702 9.60200 1138 ft 122 kts 89°
2026-05-06 13:29 52.45663 9.61571 963 ft 117 kts 90°
2026-05-06 13:29 52.45630 9.62830 806 ft 104 kts 90°
2026-05-06 13:29 52.45597 9.63959 670 ft 96 kts 91°
2026-05-06 13:30 52.45570 9.64995 545 ft 86 kts 88°
2026-05-06 13:30 52.45546 9.65871 426 ft 72 kts 85°
2026-05-06 13:30 52.45534 9.66714 354 ft 76 kts 91°
2026-05-06 13:30 52.45507 9.67612 239 ft 80 kts 87°
2026-05-06 13:31 52.45480 9.68375 173 ft 54 kts 86°
2026-05-06 13:31 52.45467 9.68900 177 ft 36 kts 90°
2026-05-06 13:31 52.45514 9.69127 176 ft 16 kts
2026-05-06 13:31 52.45600 9.69160 175 ft 8 kts 347°
2026-05-06 13:32 52.45705 9.69149 172 ft 18 kts
2026-05-06 13:32 52.45804 9.69203 172 ft 15 kts 345°
2026-05-06 13:32 52.45896 9.69093 171 ft 18 kts 329°
2026-05-06 13:32 52.46013 9.68951 170 ft 20 kts 327°
2026-05-06 13:33 52.46119 9.68821 172 ft 19 kts 323°
2026-05-06 13:33 52.46240 9.68769 174 ft 20 kts 43°
2026-05-06 13:33 52.46305 9.68984 176 ft 22 kts 73°
2026-05-06 13:33 52.46359 9.69215 175 ft 12 kts 66°
2026-05-06 13:34 52.46332 9.69283 175 ft 11 kts 161°
2026-05-06 13:34 52.46296 9.69346 175 ft 3 kts 50°
2026-05-06 13:34 52.46328 9.69341 175 ft 0 kts 344°